Location: D�pe
(52.6057°N, 8.1808°E)
Time: 07:38:08
(UTC+00:00)

Cosmos 1346 Rocket - Pass Details

Date: 29 October 2020
Orbit: 535 x 543 km, 81.2° (Epoch: 01 December)

Event Time Altitude Azimuth Distance (km) Brightness Sun altitude
Rises 17:27:13 0° 348° (NNW) 2,720 6.5 -13.4°
Reaches altitude 10° 17:29:24 10° 351° (N) 1,823 5.5 -13.7°
Maximum altitude 17:33:24 68° 75° (ENE) 590 2.7 -14.3°
Drops below altitude 10° 17:37:23 10° 159° (SSE) 1,809 5.3 -14.9°
Sets 17:39:32 0° 162° (SSE) 2,697 6.2 -15.2°
